Weather reports worldwide

Advertisment
Llerena, Spain (8336): temperature & dewpoint: 11.06.2019 20:00:00 - 17.06.2019 20:00:00 (CEST)Llerena, Spain (8336): wind speed & gusts: 11.06.2019 20:00:00 - 17.06.2019 20:00:00 (CEST)Llerena, Spain (8336): wind direction: 11.06.2019 20:00:00 - 17.06.2019 20:00:00 (CEST)Llerena, Spain (8336): reduced air pressure: 11.06.2019 20:00:00 - 17.06.2019 20:00:00 (CEST)Llerena, Spain (8336): visibility: 11.06.2019 20:00:00 - 17.06.2019 20:00:00 (CEST)Llerena, Spain (8336): sunshine duration: 11.06.2019 20:00:00 - 17.06.2019 20:00:00 (CEST)Llerena, Spain (8336): precipitation: 11.06.2019 20:00:00 - 17.06.2019 20:00:00 (CEST)
Date & Time tt [°C] td [°C] ff [km/h] ff [kn] fx [km/h] fx [kn] dd ppp [hPa] vv [km] sd [min] rr [mm]
17.06.2019 20:00:00 - - - - - - - - - - -
17.06.2019 19:00:00 28,1 -1,0 20 11 35 19 SSW 1011,7 20 60 0,0
17.06.2019 18:00:00 29,0 -3,3 23 12 36 19 SSW 1011,8 20 60 0,0
17.06.2019 17:00:00 29,2 -1,0 22 12 35 19 SSW 1012,1 19 60 0,0
17.06.2019 16:00:00 29,1 -4,5 26 14 39 21 SSW 1012,7 17 60 0,0
17.06.2019 15:00:00 28,7 1,3 20 11 37 20 SW 1013,2 15 60 0,0
17.06.2019 14:00:00 27,6 0,4 20 11 39 21 S 1013,9 18 60 -
17.06.2019 13:00:00 26,8 -2,0 17 9 31 17 S 1014,7 20 60 0,0
17.06.2019 12:00:00 24,3 0,6 18 10 28 15 SSW 1015,5 16 60 0,0
17.06.2019 11:00:00 22,6 3,2 19 10 35 19 S 1016,4 12 60 0,0
17.06.2019 10:00:00 20,6 3,2 20 11 30 16 SSW 1016,7 20 60 0,0
17.06.2019 09:00:00 19,8 2,1 12 7 19 10 S 1016,9 18 60 0,0
17.06.2019 08:00:00 17,5 3,0 3 2 6 4 E 1017,3 16 52 -
17.06.2019 07:00:00 15,2 2,7 3 2 14 8 ESE 1018,0 18 0 0,0
17.06.2019 06:00:00 16,1 3,2 9 5 18 10 SSW 1017,6 17 0 0,0
17.06.2019 05:00:00 16,5 2,5 3 1 32 17 S 1017,5 17 0 0,0
17.06.2019 04:00:00 17,7 2,5 25 14 35 19 SSW 1017,1 19 0 0,0
17.06.2019 03:00:00 18,1 1,5 29 15 37 20 SSW 1017,3 18 0 0,0
17.06.2019 02:00:00 18,7 1,7 29 16 37 20 SSW 1017,5 19 0 -
17.06.2019 01:00:00 19,4 1,3 27 15 36 19 SSW 1017,6 19 0 0,0
17.06.2019 00:00:00 19,8 2,1 20 11 31 17 SW 1017,6 18 0 0,0
16.06.2019 23:00:00 20,9 2,3 21 11 37 20 SW 1017,0 20 0 0,0
16.06.2019 22:00:00 22,7 2,3 24 13 35 19 SSW 1015,7 20 19 0,0
16.06.2019 21:00:00 25,4 2,1 22 12 31 17 SSW 1014,6 16 60 0,0
16.06.2019 20:00:00 27,1 1,5 20 11 32 18 SSW 1014,2 20 60 -
16.06.2019 19:00:00 28,5 -1,7 17 9 35 19 SW 1013,7 15 60 0,0
16.06.2019 18:00:00 28,9 -0,3 16 8 33 18 SSW 1013,6 14 46 0,0
16.06.2019 17:00:00 28,4 2,5 16 9 34 18 S 1013,8 19 30 0,0
16.06.2019 16:00:00 27,8 -3,3 16 9 32 17 SSW 1014,5 17 31 0,0
16.06.2019 15:00:00 27,9 -0,3 17 9 29 16 S 1014,7 20 49 0,0
16.06.2019 14:00:00 27,2 3,0 15 8 34 18 SSW 1015,2 14 51 -
16.06.2019 13:00:00 27,5 2,5 13 7 28 15 S 1015,0 8 43 0,0
16.06.2019 12:00:00 25,0 3,0 7 4 21 11 SE 1015,7 16 60 0,0
16.06.2019 11:00:00 21,6 2,3 10 5 15 8 E 1016,9 20 31 0,0
16.06.2019 10:00:00 19,0 5,1 8 4 10 6 ENE 1017,2 20 27 0,0
16.06.2019 09:00:00 16,5 7,7 4 2 8 4 NE 1017,5 20 22 0,0
16.06.2019 08:00:00 14,3 7,1 2 1 6 3 NNE 1017,9 16 19 -
16.06.2019 07:00:00 12,8 5,6 2 1 5 3 E 1018,1 17 0 0,0
16.06.2019 06:00:00 13,5 5,6 2 1 7 4 NNE 1017,7 18 0 0,0
16.06.2019 05:00:00 14,4 2,7 3 1 12 7 NNE 1017,6 18 0 0,0
16.06.2019 04:00:00 15,0 -1,2 5 3 10 5 E 1017,7 20 0 0,0
16.06.2019 03:00:00 16,0 -1,2 6 3 8 4 E 1017,8 20 0 0,0
16.06.2019 02:00:00 15,9 -1,7 4 2 6 4 ESE 1018,2 19 0 -
16.06.2019 01:00:00 16,8 -1,0 2 1 5 3 ESE 1018,7 20 0 0,0
16.06.2019 00:00:00 17,9 -0,5 3 1 13 7 E 1018,4 20 0 0,0
15.06.2019 23:00:00 19,5 0,4 8 4 16 9 N 1017,8 18 0 0,0
15.06.2019 22:00:00 21,4 0,6 7 4 17 9 N 1016,9 20 19 0,0
15.06.2019 21:00:00 23,6 0,6 7 4 19 11 N 1016,1 17 60 0,0
15.06.2019 20:00:00 24,6 0,9 7 4 20 11 NNE 1015,9 16 60 -
15.06.2019 19:00:00 25,1 0,6 9 5 23 12 N 1015,6 20 60 0,0
15.06.2019 18:00:00 25,2 1,3 10 5 19 10 WNW 1016,0 20 60 0,0
15.06.2019 17:00:00 24,3 1,9 8 4 23 12 E 1016,6 16 60 0,0
15.06.2019 16:00:00 24,0 2,7 12 6 23 13 NW 1017,2 20 60 0,0
15.06.2019 15:00:00 23,3 3,2 5 3 16 9 E 1017,8 14 60 0,0
15.06.2019 14:00:00 21,3 2,5 8 5 22 12 E 1018,6 16 60 -
15.06.2019 13:00:00 20,1 2,9 6 4 16 8 NE 1019,3 17 60 0,0
15.06.2019 12:00:00 19,4 3,6 9 5 19 10 N 1019,5 17 60 0,0
15.06.2019 11:00:00 18,6 5,5 6 3 14 8 NW 1019,7 19 60 0,0
15.06.2019 10:00:00 15,9 6,4 6 3 17 9 N 1020,3 15 60 0,0
15.06.2019 09:00:00 14,9 7,1 3 2 9 5 N 1020,1 20 60 0,0
15.06.2019 08:00:00 11,5 7,0 4 2 10 5 WNW 1020,8 20 50 -
15.06.2019 07:00:00 9,6 6,2 8 5 13 7 NW 1021,2 15 0 0,0
15.06.2019 06:00:00 10,0 6,1 3 2 12 6 W 1020,7 15 0 0,0
15.06.2019 05:00:00 10,6 5,8 9 5 16 9 WNW 1020,6 16 0 0,0
15.06.2019 04:00:00 10,5 5,0 11 6 14 8 W 1020,6 16 0 0,0
15.06.2019 03:00:00 11,4 5,3 9 5 18 10 W 1020,5 17 0 0,0
15.06.2019 02:00:00 11,7 4,8 9 5 13 7 W 1020,4 18 0 -
15.06.2019 01:00:00 13,3 5,1 11 6 22 12 WNW 1020,1 17 0 0,0
15.06.2019 00:00:00 14,2 4,5 14 7 21 11 NW 1019,4 20 0 0,0
14.06.2019 23:00:00 14,7 3,8 11 6 26 14 WNW 1018,7 17 0 0,0
14.06.2019 22:00:00 16,2 3,2 13 7 27 15 NW 1017,7 16 16 0,0
14.06.2019 21:00:00 18,3 2,5 20 11 29 16 WNW 1016,5 19 57 0,0
14.06.2019 20:00:00 19,8 2,1 11 6 36 19 NW 1015,7 20 60 -
14.06.2019 19:00:00 20,5 1,9 17 9 39 21 WNW 1015,2 18 60 0,0
14.06.2019 18:00:00 21,0 2,3 18 10 36 20 NW 1014,9 20 60 0,0
14.06.2019 17:00:00 20,6 1,9 21 12 41 22 WNW 1014,8 20 60 0,0
14.06.2019 16:00:00 21,0 1,7 21 12 40 22 W 1014,9 20 60 0,0
14.06.2019 15:00:00 20,6 2,5 21 11 46 25 W 1014,9 18 60 0,0
14.06.2019 14:00:00 19,8 2,7 26 14 40 22 W 1015,0 20 59 -
14.06.2019 13:00:00 19,4 3,6 16 9 34 19 WNW 1015,0 17 56 0,0
14.06.2019 12:00:00 18,2 3,9 14 8 27 15 W 1015,0 20 58 0,0
14.06.2019 11:00:00 16,4 4,1 11 6 24 13 W 1015,0 15 60 0,0
14.06.2019 10:00:00 14,3 3,9 16 9 23 13 W 1015,0 16 60 0,0
14.06.2019 09:00:00 12,4 4,1 16 9 22 12 W 1015,1 17 60 0,0
14.06.2019 08:00:00 10,4 4,5 8 5 13 7 WSW 1014,9 20 48 -
14.06.2019 07:00:00 9,0 4,3 9 5 14 8 WSW 1014,8 16 0 0,0
14.06.2019 06:00:00 9,5 4,1 9 5 15 8 WSW 1014,1 17 0 0,0
14.06.2019 05:00:00 9,9 3,6 8 4 10 6 W 1014,1 17 0 0,0
14.06.2019 04:00:00 10,9 4,1 7 4 16 9 W 1014,0 15 0 0,0
14.06.2019 03:00:00 12,0 4,3 10 6 16 9 WNW 1013,4 19 0 0,0
14.06.2019 02:00:00 12,9 3,6 10 6 18 10 WNW 1013,5 17 0 -
14.06.2019 01:00:00 15,1 1,9 11 6 18 10 NW 1012,7 18 0 0,0
14.06.2019 00:00:00 16,5 -0,7 12 6 16 9 W 1011,6 19 0 0,0
13.06.2019 23:00:00 17,3 -1,0 11 6 18 10 W 1011,2 15 0 0,0
13.06.2019 22:00:00 19,2 -0,3 14 8 35 19 W 1010,0 19 2 0,0
13.06.2019 21:00:00 21,9 -0,7 23 13 36 19 WNW 1008,3 11 59 0,0
13.06.2019 20:00:00 22,6 -0,3 24 13 37 20 WNW 1007,5 18 23 -
13.06.2019 19:00:00 26,1 1,3 25 13 39 21 WNW 1006,1 19 60 0,0
13.06.2019 18:00:00 28,3 3,9 11 6 41 22 WSW 1005,5 18 60 0,0
13.06.2019 17:00:00 27,4 5,6 12 6 29 15 S 1005,9 17 53 0,0
13.06.2019 16:00:00 27,0 7,0 14 8 36 19 SSE 1006,3 16 55 0,0
13.06.2019 15:00:00 27,2 4,8 11 6 33 18 S 1006,5 16 60 0,0
13.06.2019 14:00:00 26,2 2,9 15 8 35 19 SSE 1007,4 20 60 -
13.06.2019 13:00:00 25,1 2,5 10 5 27 14 SW 1008,0 16 60 0,0
13.06.2019 12:00:00 23,9 -1,2 13 7 26 14 S 1008,7 19 60 0,0
13.06.2019 11:00:00 22,2 -0,5 14 8 26 14 S 1009,2 20 60 0,0
13.06.2019 10:00:00 18,7 1,7 4 2 8 4 E 1010,1 20 60 0,0
13.06.2019 09:00:00 15,0 2,1 6 3 11 6 WSW 1010,9 11 60 0,0
13.06.2019 08:00:00 12,0 1,7 8 4 11 6 SW 1011,5 18 48 -
13.06.2019 07:00:00 10,4 0,6 7 4 13 7 WSW 1011,8 18 0 0,0
13.06.2019 06:00:00 11,1 2,5 10 5 17 9 WSW 1011,3 18 0 0,0
13.06.2019 05:00:00 11,8 2,9 12 7 16 8 WSW 1011,0 18 0 0,0
13.06.2019 04:00:00 11,9 2,3 8 4 11 6 W 1011,3 20 0 0,0
13.06.2019 03:00:00 12,7 2,9 8 5 14 7 WNW 1011,5 16 0 0,0
13.06.2019 02:00:00 13,9 2,1 8 5 16 9 WNW 1011,6 19 0 -
13.06.2019 01:00:00 16,0 0,2 9 5 19 10 NW 1011,1 20 0 0,0
13.06.2019 00:00:00 17,7 -5,1 10 5 17 9 NW 1010,5 20 0 0,0
12.06.2019 23:00:00 19,5 -4,8 9 5 16 8 W 1009,4 20 0 0,0
12.06.2019 22:00:00 21,7 -6,0 9 5 24 13 W 1008,2 15 18 0,0
12.06.2019 21:00:00 24,9 -5,4 16 9 28 15 W 1007,1 17 60 0,0
12.06.2019 20:00:00 26,7 -4,2 18 10 34 18 WNW 1006,4 19 60 -
12.06.2019 19:00:00 29,0 -2,2 11 6 29 16 WSW 1005,8 18 60 0,0
12.06.2019 18:00:00 28,9 -2,2 10 6 25 14 WNW 1006,2 15 60 0,0
12.06.2019 17:00:00 28,5 -0,7 10 5 28 15 SE 1006,7 19 60 0,0
12.06.2019 16:00:00 27,5 -3,3 5 3 22 12 N 1007,7 20 60 0,0
12.06.2019 15:00:00 26,6 -4,2 9 5 27 14 SW 1008,5 20 60 0,0
12.06.2019 14:00:00 26,9 -2,0 9 5 23 13 WSW 1009,1 19 60 -
12.06.2019 13:00:00 25,1 -1,0 5 3 21 11 NW 1010,2 20 60 0,0
12.06.2019 12:00:00 23,6 -0,7 6 3 15 8 NNE 1010,7 20 60 0,0
12.06.2019 11:00:00 23,7 0,0 4 2 14 8 S 1011,0 19 60 0,0
12.06.2019 10:00:00 20,0 -3,0 7 4 13 7 E 1011,8 20 60 0,0
12.06.2019 09:00:00 17,8 -4,2 9 5 14 7 E 1012,3 20 60 0,0
12.06.2019 08:00:00 14,6 -4,8 6 4 10 5 ENE 1012,8 20 53 -
12.06.2019 07:00:00 11,6 -5,4 4 2 11 6 E 1013,4 20 0 0,0
12.06.2019 06:00:00 12,6 -4,5 6 3 9 5 E 1012,8 20 0 0,0
12.06.2019 05:00:00 12,4 -4,8 6 3 10 5 E 1012,9 20 0 0,0
12.06.2019 04:00:00 13,4 -4,8 5 3 9 5 ENE 1012,9 20 0 0,0
12.06.2019 03:00:00 14,0 -4,8 6 3 15 8 ENE 1012,9 20 0 0,0
12.06.2019 02:00:00 15,2 -4,8 7 4 18 10 N 1013,0 20 0 -
12.06.2019 01:00:00 15,7 -4,8 8 4 21 11 N 1012,8 20 0 0,0
12.06.2019 00:00:00 16,8 -3,9 9 5 20 11 NNW 1012,7 20 0 0,0
11.06.2019 23:00:00 18,0 -3,6 13 7 23 12 NNW 1012,1 20 0 0,0
11.06.2019 22:00:00 19,7 -3,3 13 7 29 16 NNW 1011,0 20 18 0,0
11.06.2019 21:00:00 22,1 -2,0 16 9 34 19 NNW 1010,3 19 60 0,0
11.06.2019 20:00:00 23,3 -3,0 18 10 35 19 NNW 1009,7 17 60 -

tt = temperature
td = dewpoint
ff = wind speed
fx = gusts
dd = wind direction
ppp = reduced air pressure
vv = visibility
sd = sunshine duration
rr = precipitation

Next stations